Wind_Speed
72 72 73 73 73 73 72 72 72 72 73 73 73 74 74 74 74 74 73 72 71 71 71 71 71 71 71 70 70 70 69 69 69 69 69 69 69 69 69 68 68 68 68 69 69 69 70 70 71 71 71 72 73 75 76 77 78 79 78 77 78 80 83 86 89 91 93 93 90 86 82 81 81 82 83 86 89 92 91 87 85 87 87 87 87 86 84 84
72 72 71 71 71 71 72 72 73 73 73 74 74 74 74 73 72 72 71 70 70 69 70 70 70 70 70 70 70 70 70 69 70 71 71 70 70 70 70 70 69 70 69 70 70 70 71 71 71 70 70 71 71 72 73 74 75 75 74 74 75 79 82 86 89 90 91 90 89 84 80 82 84 83 85 87 88 89 89 87 85 85 87 86 86 85 83 83
70 70 71 71 72 72 73 73 74 74 74 74 74 73 72 71 70 69 69 68 68 68 68 68 68 69 69 69 70 70 70 69 70 72 72 71 72 71 71 71 71 71 71 71 71 71 72 72 71 71 71 71 71 72 72 72 72 72 72 71 74 79 83 86 87 88 88 87 86 82 78 81 84 85 87 87 86 87 87 86 85 85 86 86 84 83 82 81
70 71 71 72 73 74 74 74 74 73 73 73 72 71 70 69 68 68 67 67 67 67 67 67 67 67 68 68 69 69 69 69 71 73 73 72 73 73 73 73 73 72 72 72 72 73 73 72 72 72 71 72 72 72 72 72 72 71 70 70 75 79 81 85 86 86 85 83 82 79 78 80 81 84 87 85 84 86 85 85 86 84 84 84 83 82 81 79
70 71 71 72 73 73 73 73 73 72 71 71 70 69 68 67 67 67 66 66 66 66 66 66 66 66 67 67 68 68 68 68 70 73 73 72 73 73 74 74 74 74 74 74 74 74 74 73 73 73 72 73 73 73 73 74 73 72 70 72 76 78 81 84 84 83 81 79 79 78 77 79 82 85 86 83 82 83 83 83 84 83 82 82 82 81 79 78
68 69 70 70 71 71 71 71 71 71 70 70 70 70 69 68 67 67 66 66 66 66 66 65 65 65 66 66 66 67 66 66 69 72 72 72 72 72 73 74 74 74 75 75 75 75 75 75 74 74 74 74 74 73 74 75 73 72 71 73 76 78 81 83 82 81 78 76 76 77 79 81 84 84 81 82 82 80 80 80 81 82 81 80 80 79 78 77
67 68 69 69 69 70 71 71 71 72 71 71 71 70 70 69 69 68 68 67 67 66 66 66 66 65 65 66 66 66 65 65 68 70 70 70 70 71 71 72 73 73 74 75 75 76 76 76 75 75 75 75 75 74 75 75 73 72 72 74 77 79 80 81 80 79 77 75 76 78 82 83 83 79 79 84 82 77 77 78 79 80 80 79 78 77 76 75
68 69 70 71 71 72 73 74 74 74 74 73 72 71 71 70 70 69 69 69 68 68 68 67 67 66 66 66 66 66 65 66 67 69 69 69 69 69 68 69 70 71 72 73 74 75 75 76 76 76 76 76 76 75 76 75 73 72 73 75 77 78 80 80 78 77 77 75 76 79 82 82 80 79 82 84 79 75 75 77 78 78 78 76 75 75 74 72
69 70 71 73 74 75 76 76 76 76 76 75 74 73 71 71 70 69 69 69 68 68 67 68 67 66 66 66 66 65 65 65 66 66 66 66 66 66 65 66 67 67 69 69 71 71 72 74 75 75 75 76 76 75 75 74 73 73 74 76 77 77 79 79 78 78 77 74 74 79 81 80 79 80 83 81 76 73 75 77 77 75 75 73 73 72 71 71
66 67 69 70 72 73 74 75 75 75 74 74 73 71 70 70 69 68 68 67 67 66 66 66 65 65 64 64 64 63 62 63 63 63 64 63 63 63 63 63 64 65 66 67 67 68 70 71 72 72 73 74 74 74 74 73 73 73 74 76 77 77 78 78 77 76 76 73 74 79 80 79 79 80 82 79 75 74 74 76 75 73 73 71 71 70 69 69
63 64 65 66 68 69 70 70 71 71 71 70 70 69 68 68 67 67 66 66 65 64 64 64 63 63 62 62 62 61 60 60 61 62 61 61 61 61 61 62 63 64 64 65 65 66 67 68 69 70 70 71 72 72 72 72 73 73 74 76 77 76 76 76 75 75 76 74 74 79 79 77 77 79 80 78 76 74 71 74 74 72 71 70 70 69 68 67
62 62 63 64 65 66 67 68 68 69 69 68 68 67 67 67 66 65 65 64 64 63 63 63 62 61 60 61 60 59 59 58 59 60 60 60 60 60 60 61 62 63 63 64 64 65 66 67 67 68 68 70 70 70 70 71 72 72 73 74 75 74 73 74 74 75 75 73 75 77 76 75 75 76 77 77 76 73 69 71 72 70 70 70 70 68 68 66
62 63 64 65 65 66 67 68 68 69 69 69 69 68 67 67 66 65 64 63 63 63 63 62 61 60 60 60 59 58 59 58 58 59 60 60 59 59 60 61 62 62 62 63 64 64 65 66 66 67 68 67 67 68 69 69 69 69 70 71 71 71 71 72 72 73 72 71 74 75 72 72 73 74 76 76 75 72 68 68 69 68 68 69 68 67 65 65
63 64 65 67 67 68 68 68 69 70 70 70 70 69 69 68 67 66 64 63 63 63 63 62 61 60 60 61 59 58 59 58 57 58 59 59 59 59 59 60 60 61 61 61 62 62 63 64 64 65 65 65 65 67 66 66 65 66 67 67 67 67 67 69 70 70 69 69 72 72 69 69 71 72 73 73 73 71 66 65 67 66 65 65 65 65 63 63
65 66 68 69 70 70 71 71 71 71 71 71 71 70 70 70 69 67 65 64 64 64 63 62 61 60 60 61 60 58 58 57 57 57 57 57 57 57 57 57 58 58 58 59 59 59 60 61 61 61 62 61 62 63 62 61 62 63 63 62 63 62 63 66 67 67 66 66 69 69 65 66 70 70 70 71 71 69 64 63 65 63 61 62 62 62 61 61
67 68 69 71 71 72 72 73 73 73 73 73 72 72 71 71 70 68 67 65 64 64 63 62 61 60 60 60 60 58 57 56 56 55 55 55 54 54 54 54 54 55 55 55 55 56 56 57 57 57 57 57 58 58 58 57 58 60 59 59 61 60 61 64 65 64 64 65 66 66 63 64 67 68 68 69 68 65 62 61 63 60 58 58 59 61 60 60
68 69 70 71 71 72 72 73 73 73 74 74 74 73 72 71 70 69 67 65 63 63 62 60 60 60 59 59 59 56 55 55 54 54 53 52 51 50 50 51 51 51 52 52 52 52 53 53 53 53 53 53 54 55 54 54 57 59 59 60 61 60 60 62 63 63 63 63 63 62 62 61 64 67 67 66 65 62 57 58 61 58 55 56 57 58 59 58
68 69 69 69 69 69 70 70 70 71 71 72 73 73 72 71 70 69 66 65 64 62 60 58 58 58 57 57 57 55 53 53 53 51 50 49 48 47 47 48 48 48 48 49 50 50 50 50 50 50 50 51 53 53 52 54 58 59 60 60 60 59 58 59 62 63 62 61 61 61 59 58 63 66 64 62 62 58 53 55 59 56 52 53 53 55 56 55
68 66 65 64 64 65 65 66 66 67 68 69 70 70 70 69 68 67 65 64 64 62 59 56 57 56 55 55 54 53 52 52 51 48 47 48 46 45 45 45 46 45 46 47 48 48 47 48 48 48 50 51 52 52 52 55 58 59 58 57 56 55 56 57 60 64 61 58 60 60 56 57 63 65 62 60 59 55 52 55 57 53 49 49 50 52 53 53
65 63 61 60 60 61 62 62 63 64 65 66 67 67 67 67 66 64 62 63 63 61 58 56 56 55 54 53 53 52 51 51 49 46 46 46 44 42 43 43 44 44 45 46 46 45 45 46 47 49 50 51 51 50 51 54 56 55 53 52 53 53 54 56 60 64 61 57 58 60 55 55 63 64 60 58 56 54 53 54 54 50 46 48 48 49 52 52
61 59 58 58 58 58 59 60 61 62 64 64 65 66 66 65 64 62 61 61 62 59 57 55 54 54 53 51 52 51 50 50 48 45 45 45 43 41 41 42 42 44 44 44 44 44 44 46 48 49 49 48 48 48 50 52 53 50 49 50 52 54 54 56 60 63 60 56 57 59 56 54 60 63 59 56 55 52 51 52 51 47 45 47 48 49 52 50
59 57 56 55 56 57 58 59 59 60 61 63 64 65 65 64 63 62 59 59 60 58 55 55 53 53 52 50 51 50 49 49 47 44 43 44 42 40 40 42 42 43 43 42 43 43 43 46 48 47 46 45 46 46 48 49 48 47 48 51 53 54 54 57 60 61 59 56 55 56 55 54 57 60 59 56 53 50 49 50 50 47 45 47 48 49 49 45
58 57 55 54 53 55 56 57 58 58 59 60 61 62 63 63 61 60 57 56 59 57 53 53 52 50 51 50 49 49 48 47 45 43 42 43 42 38 39 42 40 41 41 41 42 42 44 46 45 44 43 43 44 44 46 47 47 48 50 52 53 53 55 57 59 60 58 54 52 52 53 55 56 59 60 55 50 48 47 49 49 48 47 47 47 46 42 39
56 56 55 54 52 52 54 55 56 56 57 58 58 59 60 61 59 58 56 53 56 57 51 50 51 49 50 49 48 48 47 45 44 42 41 42 40 37 40 41 38 39 39 39 39 41 43 43 41 41 42 42 42 42 44 46 47 48 48 49 50 51 53 55 56 58 56 50 49 50 52 54 57 59 56 51 49 46 48 51 51 50 49 47 45 41 37 36
54 53 53 53 51 51 51 53 54 53 54 55 56 57 57 58 57 56 54 51 53 56 50 47 50 50 49 46 46 47 45 44 44 41 40 41 38 37 40 39 37 38 38 38 37 39 41 39 38 40 40 40 40 41 44 45 45 45 45 47 49 50 51 53 54 55 53 48 49 51 52 53 56 56 51 49 50 46 49 53 51 50 49 44 41 37 35 36
52 51 51 50 50 50 50 51 52 51 52 52 54 55 55 56 55 53 52 48 50 55 50 46 50 51 47 44 46 46 44 43 42 39 40 41 37 36 38 37 36 37 36 36 35 36 38 36 36 38 38 38 39 42 44 43 43 43 44 46 49 49 50 51 52 51 49 48 48 50 51 51 53 52 49 50 49 45 49 53 51 50 46 40 39 38 38 38
50 49 48 47 48 48 48 49 50 49 49 50 52 52 52 53 53 51 49 47 48 52 50 47 50 51 46 43 45 45 43 43 40 38 40 40 36 35 36 36 36 35 34 33 33 35 35 34 35 37 37 38 40 42 42 40 40 42 44 46 47 48 49 48 48 48 48 47 47 48 49 49 49 50 50 51 48 46 50 52 51 50 44 40 40 40 40 40
48 47 45 44 45 46 46 47 48 47 46 48 50 48 49 51 50 49 46 45 46 49 49 48 50 50 44 42 45 45 42 42 40 38 39 39 36 35 36 36 35 34 32 31 32 34 33 32 34 35 36 38 39 40 39 38 40 43 43 43 45 45 45 46 46 47 46 44 45 47 47 47 47 48 49 49 48 47 49 50 49 48 44 41 41 42 41 42
46 44 43 41 42 43 43 44 46 45 44 45 47 46 46 48 48 47 44 42 45 48 49 48 48 48 44 43 45 45 41 41 40 37 37 38 36 35 35 35 34 33 31 30 30 31 31 30 33 34 35 36 37 37 36 38 40 41 40 41 43 43 42 44 44 43 43 43 44 45 44 44 46 46 46 46 47 47 48 48 46 44 42 42 43 42 42 43
44 42 41 39 40 40 40 41 43 42 41 42 43 43 44 45 46 44 41 42 46 48 46 45 47 48 45 44 45 44 41 40 38 35 37 38 36 35 35 34 33 32 30 30 29 29 29 29 32 34 35 35 36 35 36 38 39 39 39 40 42 42 43 44 43 42 42 42 43 42 41 43 44 44 44 45 47 47 46 44 41 39 39 42 43 42 41 43
42 40 39 38 38 38 38 39 40 39 39 40 40 40 40 42 42 40 40 43 46 47 45 44 47 48 46 44 44 43 41 39 36 35 37 38 35 35 34 33 33 32 30 30 30 28 27 29 32 34 35 35 35 35 36 38 39 38 38 40 42 42 43 43 43 42 40 40 40 40 41 42 43 43 43 44 44 43 42 39 37 37 39 41 41 40 39 38
41 40 39 37 37 36 36 37 38 37 37 38 38 38 38 39 38 37 40 44 46 47 44 44 47 47 46 44 43 42 41 39 35 34 37 37 34 34 34 33 32 32 31 30 29 27 26 28 31 32 33 32 32 34 36 38 39 39 40 42 42 42 41 41 40 39 38 38 38 41 42 41 42 42 41 41 40 38 36 35 36 37 37 36 35 35 35 33
41 40 39 38 36 36 36 37 36 36 36 36 36 37 37 36 35 38 42 44 46 46 44 45 47 47 46 44 43 43 42 39 35 35 37 36 34 34 34 33 32 32 32 30 29 27 25 27 29 30 31 30 31 34 36 39 39 39 41 42 42 41 40 40 39 38 38 38 39 42 42 40 40 39 38 38 36 34 33 32 33 32 30 29 30 30 31 30
41 41 39 38 37 36 36 37 37 36 36 35 36 36 35 34 36 40 42 44 47 47 45 47 47 46 44 43 43 43 42 40 36 36 37 36 34 34 34 33 32 33 32 30 29 28 26 26 28 29 30 30 32 35 37 38 38 39 41 41 41 40 40 40 40 39 39 39 40 42 40 37 37 36 36 36 34 33 33 30 29 28 28 30 32 32 29 27
42 41 41 39 38 37 37 37 37 37 35 35 35 34 34 35 39 42 43 45 47 47 47 48 46 44 43 42 43 43 43 41 38 38 37 35 35 34 34 34 33 33 33 29 29 29 27 27 28 29 29 30 32 34 35 36 37 38 40 39 38 38 39 40 40 40 40 40 40 40 37 35 34 33 33 33 32 32 31 28 28 29 29 32 33 31 28 27
42 42 42 41 40 39 39 39 39 37 36 35 34 34 36 38 41 42 43 45 47 48 49 47 45 44 43 42 43 43 43 42 40 38 36 35 35 35 35 35 34 33 33 30 31 30 28 28 28 28 28 29 32 33 33 35 36 38 39 39 39 39 39 40 41 41 40 39 39 39 36 35 34 33 33 32 31 30 29 27 28 30 31 32 31 30 30 30
42 42 42 42 42 42 41 41 41 39 38 36 35 36 38 40 42 44 45 46 48 49 48 47 45 44 43 43 43 42 43 44 42 38 37 36 36 36 36 35 35 34 33 32 32 31 29 29 28 27 27 29 31 32 32 34 36 37 39 40 39 39 40 40 41 41 39 38 39 38 37 37 36 33 33 32 30 30 31 29 29 29 30 33 33 33 34 33
42 43 44 43 44 44 43 42 42 42 41 39 38 40 40 41 43 45 46 47 49 49 48 47 46 44 44 44 43 42 44 45 43 40 39 37 35 35 36 35 34 33 33 33 33 32 30 29 28 27 27 29 31 31 32 34 35 37 39 39 39 40 40 39 39 39 38 38 38 37 37 37 36 33 33 32 31 31 32 32 31 29 30 33 34 35 36 36
43 44 45 44 44 45 45 44 44 43 42 42 42 43 43 43 44 46 47 48 49 49 48 48 48 46 45 45 44 44 46 45 44 43 41 38 35 35 36 36 34 33 33 33 33 32 31 29 29 29 29 30 30 30 31 33 35 37 39 39 39 40 39 39 38 38 37 38 38 38 39 38 36 33 33 33 34 33 32 32 33 31 31 32 33 34 36 38
44 45 45 45 45 45 46 46 46 45 44 44 44 45 45 46 46 48 49 50 50 49 49 50 49 46 45 47 47 47 47 46 46 45 41 38 37 37 37 37 35 33 33 33 33 33 31 30 31 30 30 30 29 29 32 34 36 38 39 39 40 40 39 39 38 37 37 37 38 39 41 40 36 34 34 33 32 31 30 30 31 32 32 31 31 33 35 38
44 45 46 46 45 46 46 46 47 45 45 45 46 46 47 47 48 50 51 51 51 50 50 50 47 45 46 49 48 47 47 47 46 44 41 39 40 39 39 38 36 34 34 34 35 33 30 30 31 30 30 31 30 31 34 35 36 39 40 40 41 41 40 40 39 38 38 38 39 40 41 40 36 33 33 31 29 30 30 31 31 32 32 31 31 34 37 39
45 45 46 45 45 45 45 46 46 45 45 46 46 46 47 48 50 52 53 53 53 53 53 51 47 46 47 49 48 48 49 48 45 41 40 41 42 41 40 38 36 36 35 36 36 32 28 29 30 31 31 31 31 32 33 33 35 38 39 39 41 42 43 43 42 40 40 39 40 41 41 40 38 34 31 27 27 29 30 32 32 32 32 32 33 36 39 40
44 45 45 45 44 45 46 46 46 46 46 47 46 46 47 48 50 52 53 54 55 55 54 50 47 46 48 51 51 51 50 48 43 40 41 43 43 41 40 38 37 36 36 37 37 33 30 29 30 32 32 31 32 32 32 32 33 35 36 38 41 42 42 43 43 43 43 42 42 43 42 42 38 32 29 25 25 29 32 32 32 33 34 34 35 37 38 39
43 44 45 45 44 43 44 44 44 44 44 45 46 46 47 49 50 52 53 55 55 54 51 49 47 48 53 55 54 52 51 48 45 45 45 44 42 40 40 39 39 38 37 38 38 36 33 33 33 34 33 31 33 33 33 35 36 36 36 36 38 38 38 40 41 42 43 43 44 45 44 42 35 27 26 26 26 31 35 33 33 35 36 36 37 38 37 37
43 43 42 42 40 39 39 39 40 40 40 40 42 44 45 47 49 51 54 55 54 51 49 48 50 53 58 58 56 54 52 50 49 48 47 45 42 41 41 40 41 40 39 39 39 37 36 36 36 35 34 34 35 36 36 36 37 38 38 37 37 36 35 37 40 41 42 43 44 45 44 42 36 30 29 29 29 33 35 35 34 35 37 38 39 39 38 37
40 39 38 37 36 35 34 35 35 36 36 37 38 40 41 43 45 47 51 53 52 50 50 51 53 57 59 59 57 55 53 52 52 49 46 45 44 44 43 42 42 42 41 41 40 39 39 39 39 38 37 37 38 38 37 37 38 39 39 39 39 39 38 39 40 42 42 43 44 45 44 42 40 38 35 35 36 37 35 35 36 34 36 37 37 38 39 40
36 36 35 34 33 31 31 31 31 32 32 34 35 36 37 40 41 43 46 48 49 51 53 56 57 59 61 60 57 55 54 54 53 48 45 44 44 45 45 44 43 43 43 43 42 41 42 43 42 41 41 40 40 39 39 39 39 39 39 39 40 41 42 42 41 41 42 43 44 44 43 42 42 41 38 38 40 39 35 36 38 37 35 34 33 33 35 39
34 34 34 32 31 29 28 27 28 29 29 30 32 32 34 37 38 40 43 45 46 49 53 55 58 59 60 58 56 55 55 55 52 47 43 42 43 45 46 45 45 45 45 44 44 44 45 46 45 45 44 42 41 41 40 40 41 42 41 40 41 42 43 43 42 41 41 42 43 42 42 42 43 42 40 38 39 40 39 39 41 40 38 36 36 35 35 37
32 32 32 31 29 27 25 24 24 25 27 27 28 29 31 34 36 38 42 44 45 47 49 52 55 57 58 56 54 54 53 52 50 46 44 44 44 45 46 46 47 48 47 46 46 47 48 48 48 47 46 43 42 42 42 43 46 46 44 43 44 44 45 44 43 42 42 42 41 41 42 43 43 43 43 40 39 42 46 46 44 43 43 44 46 44 42 42
29 29 28 27 26 24 22 21 20 21 23 25 26 27 28 30 33 36 39 41 42 44 45 47 50 52 53 54 54 54 52 51 49 46 47 48 48 47 48 48 48 49 49 49 49 50 51 51 51 51 50 46 43 43 43 45 49 50 47 46 47 47 47 47 44 41 42 44 43 42 44 46 46 45 45 44 43 44 46 48 47 46 46 48 50 49 47 48
26 26 25 25 24 23 21 19 18 18 19 21 23 24 25 27 30 33 34 35 37 40 42 45 46 47 49 52 54 56 56 55 53 52 52 51 49 50 50 51 51 52 53 54 52 52 55 56 55 54 53 49 46 45 44 44 48 51 50 50 50 50 50 50 47 43 41 43 44 44 46 47 46 46 46 45 46 47 46 47 47 48 49 49 49 51 51 51
24 24 23 23 22 21 19 18 16 15 16 17 19 20 22 24 27 29 30 31 33 36 40 43 44 44 47 51 54 57 58 59 58 57 55 53 51 51 51 51 53 55 58 60 57 57 60 61 59 57 54 51 50 47 45 45 47 49 50 52 53 54 54 54 53 49 44 41 38 38 43 45 43 43 44 44 46 49 49 49 50 51 52 52 52 55 56 56
Wind_Direction
260 261 262 263 263 263 264 265 265 266 268 269 270 271 271 271 271 270 269 267 266 264 262 261 260 258 258 258 257 257 257 257 257 256 256 255 255 254 254 254 254 254 254 254 255 255 255 254 254 254 254 253 253 253 252 252 253 253 253 252 252 252 253 253 252 252 252 253 254 254 256 256 256 255 256 256 257 259 260 260 260 261 262 262 263 263 264 265
261 261 262 262 262 263 264 265 266 267 268 269 270 270 271 270 269 268 268 267 266 265 264 263 261 260 259 259 258 258 258 257 257 257 256 255 255 254 254 254 254 254 254 254 254 254 254 254 254 254 254 254 253 253 253 252 252 252 252 252 252 252 252 252 253 253 253 254 254 254 255 257 257 255 255 256 257 259 261 261 261 261 262 262 262 263 264 265
261 261 261 262 262 263 264 265 266 267 268 269 269 270 270 269 268 268 268 267 267 266 265 264 263 262 261 260 260 259 259 259 259 258 257 256 256 255 255 255 254 254 254 254 255 254 254 254 254 254 254 254 254 254 253 253 253 252 252 251 251 251 252 252 253 253 254 255 255 255 255 256 257 257 256 255 257 259 260 261 261 261 262 262 263 264 264 265
261 261 262 263 263 264 265 266 266 267 268 268 269 269 269 268 268 268 268 268 267 267 266 265 264 263 263 262 261 261 260 260 260 259 258 257 257 257 256 256 255 255 254 254 254 254 254 254 254 254 254 253 253 253 254 253 253 252 251 251 251 251 252 252 253 253 254 255 257 257 256 256 257 258 257 256 256 257 259 261 261 261 262 263 264 264 264 265
262 262 263 264 264 265 266 266 267 267 267 267 267 267 267 267 267 267 268 268 267 267 267 266 265 265 264 263 263 262 262 261 261 261 260 259 258 258 257 257 256 256 255 255 254 254 254 254 254 254 253 253 253 253 253 253 252 252 252 251 251 251 252 252 253 254 255 256 257 258 257 256 255 255 257 258 257 257 259 261 262 262 263 263 264 264 265 265
261 262 263 264 264 265 266 266 267 267 267 266 266 266 266 266 266 267 267 267 267 267 267 266 266 265 265 264 264 263 263 262 262 262 261 260 259 259 258 258 257 256 256 255 255 255 254 254 254 254 254 253 253 253 253 252 252 252 252 251 251 252 252 253 253 254 255 256 256 257 256 255 254 255 257 259 257 257 259 261 262 263 263 263 264 265 265 266
258 259 260 261 262 263 264 265 266 266 267 267 267 267 267 266 266 266 266 266 266 266 267 266 266 266 265 265 265 264 264 263 263 263 263 262 261 260 260 259 258 257 257 256 255 255 254 254 254 254 254 254 253 253 253 253 252 252 252 251 251 252 252 253 253 254 255 255 255 255 255 255 256 257 257 257 257 258 260 261 261 262 262 263 264 265 266 266
257 256 257 258 259 260 261 262 263 265 266 267 267 267 267 267 266 266 266 266 266 266 266 266 266 266 265 265 265 265 265 264 264 264 264 264 263 261 261 260 259 258 257 256 255 255 255 254 254 254 254 254 254 253 253 253 253 252 252 251 251 251 252 253 253 254 253 253 254 254 255 256 257 257 256 256 258 259 260 260 260 261 263 264 264 265 266 266
258 257 257 257 258 259 260 261 262 263 264 265 266 266 267 267 266 266 266 266 266 266 266 266 266 266 266 266 266 265 265 265 265 265 265 264 264 263 261 260 259 258 257 256 256 255 254 254 254 254 254 254 254 254 254 254 253 252 252 251 251 251 252 253 253 253 253 253 254 255 255 255 256 256 256 256 257 258 259 259 260 262 263 265 265 265 265 266
259 259 259 259 259 260 261 261 262 263 264 265 265 266 266 266 266 266 266 266 266 266 266 266 266 266 266 266 266 266 265 266 266 265 264 264 264 263 262 261 259 258 257 256 256 255 255 254 254 254 254 254 254 254 253 253 253 252 251 251 251 251 251 252 252 253 253 252 253 255 255 255 255 256 257 257 256 256 257 259 260 261 263 264 265 266 266 266
260 260 260 261 261 261 262 262 263 264 264 265 265 265 265 265 266 266 266 266 266 267 267 267 267 267 267 267 266 266 266 266 266 265 265 264 263 263 262 261 260 259 258 257 256 256 255 255 254 254 254 254 254 253 253 253 252 252 251 252 251 251 252 252 252 252 252 251 251 253 254 255 255 256 257 257 256 255 256 259 260 260 261 262 263 264 265 266
261 261 262 262 262 263 263 263 263 264 264 264 265 265 265 265 266 266 266 266 267 267 267 267 267 267 267 267 267 267 267 266 266 266 266 265 264 263 262 261 260 259 258 258 257 256 256 255 255 255 254 254 254 254 253 253 252 252 252 252 252 252 252 252 252 251 251 251 251 251 253 255 255 257 257 257 256 255 255 257 260 261 261 261 261 262 264 265
262 262 262 263 263 263 264 264 264 264 264 264 264 264 265 265 265 266 266 266 266 266 267 267 267 268 268 268 268 268 268 267 267 267 267 266 264 263 262 261 260 259 259 258 258 257 256 256 255 255 254 254 254 253 253 253 252 252 251 251 252 251 251 251 251 251 250 250 250 251 252 254 255 256 257 257 256 255 254 256 258 260 261 261 262 262 263 264
264 265 265 264 264 264 264 265 265 264 264 264 264 264 264 264 264 264 265 265 266 266 267 267 268 268 269 269 269 269 269 269 269 268 267 267 265 264 262 262 261 260 259 258 258 257 256 256 255 254 254 254 253 253 253 253 253 252 251 251 251 251 251 251 250 250 250 249 250 250 250 253 254 254 256 256 256 255 253 255 256 257 260 261 262 262 262 263
268 268 268 268 267 266 265 265 265 265 264 263 263 263 263 263 263 263 264 264 265 266 266 267 268 269 269 270 270 270 271 270 270 269 268 267 266 265 263 262 262 261 259 258 257 257 256 255 254 254 254 253 253 253 253 252 252 251 251 251 250 250 250 250 250 250 249 248 249 249 249 251 253 253 254 255 256 256 254 254 255 256 258 260 261 261 261 261
271 271 271 271 270 268 267 266 265 264 263 262 262 262 263 263 262 262 262 263 264 265 266 267 268 269 270 271 271 271 272 271 270 269 268 267 266 265 264 262 261 260 259 257 257 256 255 255 254 254 253 253 253 252 252 251 251 251 250 249 249 248 248 249 249 249 248 247 248 249 248 249 252 253 254 255 256 256 255 254 255 255 255 257 260 261 260 260
273 273 273 272 270 269 268 267 266 264 263 261 261 261 262 262 262 262 262 262 263 263 265 266 267 268 269 270 271 271 271 271 270 269 268 268 267 266 264 263 261 259 258 257 256 255 255 255 254 254 254 253 252 252 251 251 250 250 248 247 246 246 246 247 248 248 247 247 248 248 247 247 251 252 252 254 255 255 256 257 256 253 253 255 257 259 260 259
276 275 274 272 270 268 267 266 265 264 262 261 260 261 261 262 262 262 262 262 262 263 264 266 266 267 268 269 270 271 271 270 269 269 270 268 266 265 264 262 261 259 258 257 256 255 254 255 254 254 254 253 252 251 249 249 248 247 247 246 246 246 246 247 249 249 247 247 248 247 247 247 249 251 251 253 255 255 255 256 256 254 253 254 255 257 259 259
279 277 274 271 269 268 266 265 264 263 262 262 261 261 261 261 262 262 262 262 262 263 264 265 265 266 266 267 269 269 269 269 270 270 270 268 266 265 263 262 261 259 258 257 256 255 255 256 255 254 253 251 250 249 247 247 247 247 247 248 249 249 248 248 249 249 247 247 248 247 245 247 249 250 250 252 254 255 252 253 256 256 255 254 254 256 257 257
281 277 274 272 270 268 266 264 263 262 261 261 261 260 260 260 261 262 261 262 262 263 264 264 264 265 265 266 267 268 268 269 270 271 269 268 266 265 263 261 260 258 257 256 256 256 256 256 255 253 252 251 250 249 248 247 248 248 249 249 250 249 247 247 247 248 246 244 246 247 244 244 249 250 249 250 252 252 251 252 255 256 255 255 253 253 254 254
280 277 275 274 272 269 267 265 263 261 260 260 259 259 259 260 260 261 261 262 262 263 263 263 263 263 264 265 266 266 267 269 270 270 269 268 266 263 262 260 259 257 256 257 257 256 256 254 253 251 250 250 249 248 248 248 248 248 248 247 246 245 244 243 244 246 245 242 243 246 244 241 246 250 249 248 249 249 251 253 254 254 253 253 252 251 252 253
280 277 276 274 272 270 268 266 264 262 260 259 258 259 259 259 259 260 260 261 262 262 263 262 262 263 264 263 264 265 266 269 270 269 267 266 264 262 261 260 258 257 257 257 257 256 254 253 251 251 251 250 249 248 248 248 248 247 245 243 242 242 242 242 243 244 244 241 240 244 246 242 243 247 248 246 247 248 250 252 253 252 249 249 250 250 253 256
281 279 277 275 272 268 266 265 263 262 261 260 259 258 258 258 258 259 259 259 261 261 261 262 261 262 263 262 262 264 266 268 269 267 265 265 264 262 261 259 258 258 258 257 257 256 254 253 252 252 252 250 249 248 247 246 245 243 241 241 241 241 241 241 242 244 244 242 241 242 244 244 242 243 246 247 247 247 249 250 250 249 248 248 249 252 255 257
279 278 278 277 273 269 266 263 262 261 261 260 259 258 257 257 257 257 257 257 259 261 260 261 262 261 261 262 262 263 265 266 266 265 264 264 263 262 261 259 258 258 258 257 256 255 254 253 253 252 251 249 248 246 245 243 242 241 241 242 242 241 242 243 244 245 246 244 243 241 241 243 243 244 246 247 247 245 247 247 247 248 248 248 251 253 254 254
277 276 276 276 273 269 266 264 262 261 261 260 259 258 256 256 256 256 256 255 257 260 260 259 261 260 259 261 262 262 263 263 263 264 264 263 262 261 260 259 259 258 258 257 256 255 255 253 252 250 249 248 246 243 242 241 240 240 240 240 241 240 240 242 243 245 247 245 243 241 239 240 244 247 247 246 245 243 245 247 247 248 248 250 252 252 250 248
276 276 275 274 272 269 266 264 263 262 261 260 258 257 256 256 256 255 255 255 255 259 259 258 259 259 258 259 259 260 261 261 262 263 263 262 260 260 261 260 259 259 258 258 256 255 254 252 250 249 247 245 243 241 241 240 240 239 238 238 239 240 239 240 243 244 245 243 242 241 241 240 243 246 246 244 243 241 244 247 248 248 248 250 250 249 247 244
276 276 276 273 271 269 266 265 263 262 262 260 258 256 256 255 255 254 254 254 254 257 259 258 257 258 257 257 257 257 258 260 261 260 261 262 261 260 260 259 258 258 257 257 256 254 253 250 249 247 245 243 241 240 241 240 239 237 236 237 238 239 240 240 241 243 242 241 241 241 241 240 241 243 243 244 243 240 242 246 248 249 249 249 249 248 247 244
276 276 275 274 271 269 267 265 264 263 261 260 258 256 254 254 254 253 253 253 253 255 256 256 256 257 256 254 254 254 255 258 259 258 260 262 260 259 258 257 257 257 257 255 254 254 252 249 247 246 243 242 241 241 240 238 236 237 236 237 239 240 241 241 240 241 242 241 241 241 240 240 240 241 243 244 244 241 242 245 247 250 250 248 248 247 247 246
275 276 275 274 272 269 267 265 264 263 261 259 258 256 253 252 253 252 252 252 252 251 253 254 256 256 254 251 252 252 253 255 257 258 259 260 259 258 257 256 257 258 257 254 253 253 251 247 245 244 242 241 241 240 238 236 236 237 237 237 238 239 239 240 240 240 241 240 240 241 241 240 240 241 242 243 243 243 243 245 247 249 250 249 248 246 246 247
274 275 274 273 271 270 268 265 263 262 261 259 258 256 253 252 251 251 251 250 250 250 250 252 253 253 251 250 250 250 251 254 256 257 258 258 257 257 256 256 257 257 256 254 251 250 248 245 243 242 239 238 238 236 235 235 235 235 235 235 235 236 236 237 237 237 238 239 240 240 240 240 240 240 240 241 242 243 244 245 247 247 247 247 246 246 246 247
274 274 274 272 270 270 268 266 264 261 260 258 257 256 253 252 251 250 250 249 249 249 248 248 250 251 251 250 250 250 250 252 254 255 256 256 256 256 256 255 255 255 255 253 251 248 247 244 241 240 239 238 237 235 233 233 233 232 232 233 233 233 235 237 238 238 238 240 240 240 238 238 239 239 239 241 243 244 245 245 244 243 243 245 246 246 246 247
273 273 273 271 269 269 268 267 265 262 260 258 257 256 253 252 251 249 249 248 247 248 247 247 249 250 250 249 249 249 249 251 251 252 255 256 255 255 254 252 253 254 253 252 250 248 246 245 243 241 241 240 238 237 234 232 231 229 230 231 231 232 234 236 238 238 238 238 238 239 238 237 238 239 240 241 242 244 244 241 241 242 244 246 246 246 245 243
272 272 272 271 270 269 268 267 266 263 261 258 257 256 254 252 251 248 247 247 248 247 246 245 246 247 247 248 249 248 249 250 250 251 254 254 253 252 251 250 251 251 250 249 249 246 244 244 243 241 240 237 235 233 233 232 231 230 230 231 231 231 232 234 235 236 235 235 236 239 239 237 238 239 240 241 240 240 239 238 239 241 241 239 236 237 238 236
271 271 271 271 270 269 268 267 266 264 261 259 257 256 255 252 249 247 246 247 247 247 245 243 244 246 247 248 248 247 248 249 249 250 252 252 251 250 250 249 248 249 249 248 248 245 242 240 239 238 236 233 232 231 231 232 231 230 231 233 233 233 232 232 233 234 234 235 236 238 239 239 240 240 239 239 238 237 237 236 234 233 228 225 224 226 227 223
270 270 271 271 270 269 268 267 266 264 262 260 257 255 253 250 247 246 245 246 247 247 246 244 244 246 247 247 248 247 247 247 247 249 251 252 251 249 248 247 247 248 249 247 247 246 242 240 238 236 234 232 232 232 231 232 231 231 232 233 234 233 233 232 233 233 233 234 237 239 239 239 239 239 238 238 236 235 236 233 229 225 220 219 221 221 215 207
270 270 271 271 270 269 268 267 266 265 263 261 258 255 251 248 247 246 245 245 246 246 246 246 245 245 245 245 246 246 247 247 246 248 251 252 251 250 248 247 247 248 248 246 246 245 242 241 239 236 234 233 233 232 231 230 230 230 230 230 230 230 230 231 231 232 232 234 236 238 238 237 236 235 236 236 233 231 231 227 224 221 218 220 222 218 211 207
270 271 271 271 271 269 268 266 266 264 263 261 258 254 250 248 247 246 245 244 245 246 246 247 246 246 246 246 245 246 247 248 247 248 249 249 249 249 249 248 247 247 248 247 246 245 243 242 241 238 234 233 234 232 229 229 228 229 229 229 228 228 229 231 232 233 233 233 236 237 237 236 234 233 234 235 233 230 226 223 222 222 221 222 222 218 215 213
271 272 271 271 271 270 268 266 265 263 262 259 256 253 251 249 247 247 246 245 246 246 247 247 247 246 246 246 246 245 246 247 247 247 246 246 247 248 248 248 247 248 249 248 247 246 244 243 241 237 233 232 232 231 229 228 227 227 229 229 227 227 228 229 232 234 234 234 235 235 236 236 234 232 232 233 233 230 228 225 225 224 221 220 221 220 218 216
271 271 271 270 270 270 269 267 265 264 262 259 256 253 251 250 248 248 247 246 246 246 246 246 246 245 246 246 246 245 245 245 246 245 245 244 245 246 246 245 244 244 246 246 245 244 243 242 240 235 232 231 231 230 228 227 226 226 227 228 228 227 227 228 229 231 233 234 234 234 235 235 233 231 230 231 232 232 231 230 227 224 220 219 220 219 218 217
272 271 271 271 270 270 269 268 267 265 263 260 257 254 252 250 249 248 247 247 246 246 245 245 245 245 245 245 244 243 243 243 243 244 245 244 243 242 243 244 243 242 244 244 244 242 240 240 240 238 235 232 231 229 228 226 224 225 225 225 226 226 226 226 226 227 229 231 233 234 235 233 231 231 232 232 233 235 234 232 229 225 222 222 223 220 217 216
273 273 273 273 272 271 270 269 267 265 263 260 257 254 252 250 249 248 248 247 247 246 245 245 244 243 243 245 245 245 245 243 242 243 244 244 243 242 241 242 243 243 243 243 242 241 241 242 242 240 237 235 231 230 230 228 226 227 226 225 226 225 224 225 225 224 226 228 230 233 235 234 230 230 234 235 236 237 237 235 231 227 222 220 221 218 215 215
275 276 275 275 274 273 272 270 268 266 263 260 257 254 252 250 248 247 246 246 246 245 244 244 242 241 241 242 242 242 243 242 242 243 245 244 243 243 243 243 242 242 242 242 241 240 239 242 243 239 235 234 233 232 234 233 231 232 230 228 227 226 224 224 224 223 223 226 229 231 234 235 229 225 228 236 243 243 241 240 235 230 225 219 217 217 217 220
278 278 278 277 276 274 273 271 269 266 263 261 258 254 252 249 247 246 246 245 245 244 244 244 244 244 244 243 242 241 240 239 238 240 242 243 243 244 244 243 241 240 240 241 241 237 231 233 238 237 233 232 232 232 233 233 232 233 234 233 233 231 230 229 227 225 225 226 228 229 231 233 231 224 217 222 237 243 241 240 239 236 232 225 220 221 224 226
281 281 281 280 278 276 274 272 270 266 263 261 259 256 252 249 247 246 245 244 244 244 244 243 242 242 243 243 243 243 243 241 238 235 235 237 240 242 242 240 238 237 238 239 241 238 231 227 231 236 235 233 231 230 230 231 232 233 233 235 237 238 238 237 235 232 231 232 233 234 234 234 232 223 208 204 219 234 235 234 237 238 237 232 226 223 225 228
285 284 283 282 280 278 275 272 270 267 264 260 257 254 252 249 246 245 244 244 244 244 243 241 238 239 240 241 241 241 240 240 239 237 236 235 235 236 237 238 238 238 237 237 238 238 235 231 230 233 236 235 234 231 230 231 233 234 233 233 236 237 238 240 240 237 235 235 236 238 240 238 233 223 209 200 210 225 228 227 231 236 237 236 234 231 227 226
288 287 286 284 283 280 276 272 269 266 263 260 256 253 250 249 246 244 244 243 243 241 240 237 235 235 238 240 240 240 240 240 239 236 235 235 234 233 233 234 236 238 237 237 236 236 236 235 234 233 233 234 234 233 232 232 232 234 234 233 234 235 234 236 238 239 237 236 236 238 241 242 238 229 218 209 213 222 224 221 223 229 234 235 237 236 230 225
292 291 290 289 287 283 279 275 271 267 262 258 255 252 249 247 245 243 243 242 240 237 236 235 233 233 235 236 236 237 238 239 240 238 236 236 235 234 233 232 232 234 236 236 235 233 233 235 235 235 233 232 233 233 232 233 234 235 235 235 234 234 234 234 235 238 240 239 238 238 240 241 240 236 228 219 218 223 223 217 216 221 227 229 229 227 224 223
296 297 296 295 293 289 284 279 274 270 265 259 254 250 247 244 242 240 240 240 238 235 234 233 234 234 235 236 235 234 234 235 237 236 236 238 237 236 234 232 231 232 233 234 234 233 232 233 234 236 235 232 232 233 232 233 235 235 234 234 235 237 237 235 235 235 238 239 239 238 237 236 237 237 233 225 220 222 221 214 214 219 223 222 220 218 218 219
301 301 300 299 297 294 289 283 277 272 268 262 257 252 246 244 241 238 237 237 237 235 234 233 233 234 235 237 237 236 236 236 236 234 231 231 232 233 233 231 230 231 231 231 232 232 232 233 234 237 237 235 232 233 232 230 231 233 233 233 235 238 240 240 237 236 236 236 237 238 238 235 232 232 232 229 223 222 220 215 216 220 222 221 219 218 219 217
304 304 304 303 301 299 296 290 283 275 269 264 259 254 249 245 242 240 238 237 237 237 236 235 234 233 233 234 235 236 236 236 236 235 233 229 227 226 227 227 227 229 230 229 230 232 233 234 235 236 238 237 235 234 232 231 232 234 233 232 233 236 240 241 240 239 238 236 235 235 238 238 235 231 230 228 226 224 222 219 219 220 219 220 220 218 218 218
308 309 310 309 308 306 303 299 291 281 272 265 259 254 249 245 242 240 239 237 236 235 235 235 235 233 231 230 230 230 231 231 230 230 231 231 228 225 223 223 222 224 227 227 226 228 232 234 234 235 236 237 237 235 233 232 233 235 234 232 232 233 236 240 241 241 241 240 238 238 239 241 241 238 234 231 230 228 223 219 219 217 215 217 219 217 217 219
315 315 315 314 312 310 307 305 300 290 278 268 261 255 248 244 241 240 237 233 232 232 232 233 234 232 230 229 227 226 226 226 226 225 226 227 227 226 224 223 222 222 224 226 224 224 229 232 232 233 234 235 236 236 234 233 234 235 235 233 233 233 233 237 240 241 242 242 242 243 245 244 243 241 238 236 235 234 228 223 221 219 217 219 221 221 222 224
Height
10660 10660 10661 10662 10662 10662 10663 10664 10664 10665 10665 10666 10666 10667 10667 10667 10667 10667 10667 10667 10668 10669 10670 10671 10673 10675 10677 10679 10681 10683 10686 10688 10689 10689 10691 10693 10694 10696 10698 10700 10702 10703 10704 10705 10707 10708 10709 10711 10712 10716 10719 10721 10722 10723 10726 10728 10731 10736 10742 10748 10750 10749 10744 10739 10735 10733 10732 10735 10747 10759 10768 10771 10770 10772 10770 10763 10759 10758 10765 10775 10782 10782 10783 10786 10786 10792 10798 10799
10652 10653 10654 10654 10655 10655 10656 10656 10657 10657 10658 10658 10659 10659 10659 10659 10659 10660 10660 10660 10661 10662 10663 10664 10666 10668 10670 10672 10674 10676 10679 10681 10681 10680 10682 10685 10686 10689 10690 10692 10694 10695 10697 10698 10699 10701 10702 10703 10706 10709 10711 10713 10714 10716 10718 10721 10724 10730 10735 10740 10742 10738 10732 10726 10724 10725 10728 10733 10742 10757 10766 10762 10758 10762 10761 10754 10755 10759 10761 10767 10776 10775 10774 10778 10781 10786 10792 10793
10645 10646 10646 10647 10647 10648 10648 10649 10650 10650 10650 10651 10651 10651 10652 10652 10652 10653 10653 10654 10654 10655 10656 10658 10659 10661 10663 10665 10667 10669 10671 10674 10673 10671 10674 10678 10678 10680 10682 10684 10686 10687 10690 10691 10691 10693 10693 10696 10699 10701 10703 10705 10707 10708 10711 10714 10717 10723 10728 10733 10731 10725 10720 10717 10717 10720 10724 10730 10737 10752 10760 10753 10749 10750 10748 10750 10755 10756 10756 10759 10765 10767 10767 10771 10776 10780 10785 10788
10637 10638 10639 10639 10640 10640 10641 10642 10642 10643 10643 10643 10644 10644 10645 10645 10645 10646 10646 10647 10647 10648 10649 10650 10652 10654 10655 10657 10659 10661 10664 10667 10664 10661 10666 10670 10670 10672 10674 10675 10678 10679 10681 10683 10683 10684 10686 10688 10691 10693 10696 10698 10699 10701 10704 10706 10709 10715 10720 10724 10719 10714 10713 10710 10710 10714 10721 10729 10734 10744 10749 10747 10745 10737 10733 10744 10751 10750 10752 10753 10755 10762 10763 10765 10770 10772 10777 10781
10630 10630 10631 10631 10632 10632 10633 10633 10634 10635 10635 10636 10636 10637 10638 10638 10638 10639 10640 10640 10641 10641 10642 10643 10645 10646 10648 10650 10651 10654 10657 10659 10656 10653 10657 10661 10662 10664 10666 10667 10669 10671 10673 10674 10675 10676 10678 10680 10683 10686 10688 10689 10691 10694 10696 10697 10701 10707 10713 10714 10709 10707 10706 10702 10705 10711 10720 10728 10730 10735 10737 10736 10733 10725 10727 10737 10743 10745 10748 10749 10749 10755 10758 10759 10761 10765 10770 10774
10623 10623 10624 10624 10624 10625 10625 10626 10626 10627 10628 10628 10629 10630 10630 10631 10632 10632 10633 10633 10634 10635 10636 10637 10638 10639 10641 10642 10644 10646 10649 10651 10648 10645 10648 10652 10654 10656 10657 10659 10660 10662 10664 10665 10667 10669 10670 10672 10675 10677 10679 10681 10683 10687 10687 10688 10695 10701 10704 10704 10701 10699 10697 10697 10702 10708 10716 10722 10724 10724 10723 10721 10718 10723 10730 10728 10732 10741 10744 10745 10746 10746 10749 10753 10755 10759 10764 10767
10616 10617 10617 10617 10617 10618 10618 10619 10619 10619 10620 10621 10622 10622 10623 10624 10625 10625 10626 10627 10628 10628 10629 10630 10631 10632 10634 10635 10637 10638 10641 10643 10640 10637 10639 10643 10646 10647 10648 10651 10652 10654 10655 10657 10659 10660 10662 10665 10667 10668 10671 10673 10675 10678 10678 10680 10689 10694 10695 10695 10692 10691 10690 10692 10697 10703 10710 10715 10717 10714 10709 10709 10713 10724 10724 10716 10725 10739 10740 10740 10739 10737 10740 10747 10751 10754 10757 10761
10609 10609 10610 10610 10610 10611 10611 10612 10612 10612 10613 10614 10614 10615 10616 10617 10617 10618 10619 10620 10621 10622 10622 10623 10624 10625 10627 10628 10629 10631 10633 10634 10632 10631 10632 10635 10637 10639 10641 10643 10643 10645 10646 10648 10650 10652 10654 10656 10657 10660 10663 10664 10666 10669 10671 10674 10682 10686 10686 10684 10684 10685 10684 10687 10693 10698 10702 10707 10709 10703 10701 10704 10709 10715 10710 10709 10724 10735 10734 10731 10731 10732 10735 10741 10746 10748 10750 10754
10601 10602 10602 10603 10603 10603 10604 10604 10605 10605 10606 10606 10607 10608 10608 10609 10610 10611 10612 10613 10614 10615 10615 10616 10617 10618 10619 10621 10622 10624 10626 10625 10625 10626 10626 10627 10628 10631 10633 10634 10635 10636 10638 10639 10641 10643 10645 10647 10649 10652 10654 10655 10658 10662 10664 10668 10673 10676 10676 10674 10676 10678 10678 10681 10687 10690 10693 10702 10703 10693 10694 10700 10702 10703 10699 10707 10723 10728 10726 10722 10725 10729 10731 10735 10738 10740 10744 10747
10594 10595 10595 10595 10595 10596 10596 10596 10597 10597 10598 10599 10599 10600 10601 10601 10603 10604 10605 10606 10607 10608 10608 10608 10610 10611 10612 10614 10614 10616 10618 10618 10618 10618 10618 10620 10621 10623 10625 10626 10627 10628 10629 10631 10633 10635 10636 10638 10640 10643 10646 10648 10650 10653 10656 10660 10663 10666 10667 10666 10667 10671 10673 10675 10681 10684 10687 10696 10695 10684 10687 10693 10695 10694 10693 10703 10715 10720 10720 10716 10720 10727 10727 10730 10731 10733 10737 10740
10587 10587 10587 10587 10588 10588 10588 10588 10589 10589 10590 10591 10591 10592 10593 10594 10595 10596 10598 10599 10600 10601 10601 10601 10603 10604 10606 10605 10606 10609 10612 10612 10610 10609 10611 10614 10614 10615 10617 10618 10618 10620 10621 10623 10625 10627 10628 10630 10632 10635 10638 10639 10642 10645 10648 10652 10653 10656 10658 10657 10660 10665 10668 10670 10675 10677 10678 10686 10686 10678 10680 10686 10689 10688 10687 10696 10703 10712 10718 10712 10713 10721 10724 10725 10726 10728 10731 10734
10579 10579 10579 10580 10580 10580 10580 10581 10581 10582 10582 10583 10583 10584 10585 10586 10588 10589 10591 10592 10593 10594 10594 10595 10596 10598 10598 10597 10599 10602 10603 10604 10604 10603 10604 10606 10607 10608 10609 10610 10610 10612 10613 10615 10617 10618 10620 10622 10624 10627 10629 10631 10634 10637 10640 10642 10644 10648 10650 10650 10653 10659 10662 10664 10667 10667 10670 10677 10676 10672 10677 10681 10683 10682 10680 10686 10691 10704 10715 10710 10707 10713 10716 10717 10720 10724 10726 10729
10572 10572 10572 10572 10572 10572 10572 10573 10573 10574 10574 10575 10575 10577 10578 10579 10580 10582 10584 10585 10586 10587 10587 10588 10589 10591 10591 10590 10593 10596 10595 10597 10598 10597 10596 10597 10599 10601 10601 10601 10602 10604 10606 10607 10609 10610 10612 10614 10616 10619 10620 10624 10627 10628 10631 10634 10638 10641 10641 10643 10648 10652 10655 10656 10657 10658 10663 10668 10666 10667 10675 10676 10676 10675 10673 10677 10683 10695 10709 10708 10704 10707 10708 10710 10714 10719 10722 10723
10564 10564 10564 10563 10564 10564 10564 10565 10565 10565 10566 10566 10567 10568 10570 10571 10573 10575 10577 10579 10580 10580 10580 10581 10583 10585 10584 10583 10586 10588 10587 10590 10591 10590 10589 10589 10591 10592 10593 10594 10595 10596 10599 10599 10601 10602 10603 10605 10609 10610 10613 10618 10618 10619 10624 10628 10630 10631 10632 10638 10641 10644 10647 10646 10647 10651 10656 10660 10658 10662 10671 10670 10667 10668 10668 10670 10674 10686 10702 10704 10700 10703 10704 10703 10706 10711 10716 10716
10556 10556 10555 10555 10555 10555 10556 10556 10556 10557 10557 10558 10559 10560 10561 10563 10565 10567 10570 10572 10573 10573 10573 10575 10576 10578 10577 10576 10578 10581 10581 10583 10583 10582 10583 10582 10583 10585 10586 10587 10588 10589 10591 10592 10593 10595 10595 10597 10601 10602 10605 10610 10610 10613 10618 10621 10622 10622 10626 10632 10633 10637 10639 10636 10639 10645 10649 10652 10650 10655 10666 10664 10659 10661 10663 10664 10668 10679 10694 10696 10694 10700 10702 10699 10699 10703 10709 10709
10548 10547 10546 10546 10546 10546 10546 10547 10547 10548 10548 10549 10550 10551 10552 10554 10557 10560 10562 10564 10566 10565 10566 10569 10570 10570 10571 10569 10570 10574 10575 10575 10575 10575 10575 10576 10577 10578 10579 10580 10580 10581 10582 10584 10586 10587 10588 10589 10593 10595 10598 10603 10604 10606 10611 10614 10615 10615 10620 10623 10624 10629 10630 10629 10633 10637 10640 10643 10644 10650 10658 10659 10654 10655 10657 10658 10664 10674 10685 10688 10687 10694 10698 10696 10695 10695 10699 10703
10539 10538 10537 10537 10536 10536 10536 10537 10537 10538 10538 10539 10540 10542 10543 10546 10549 10551 10554 10557 10558 10558 10559 10563 10563 10563 10565 10563 10563 10567 10568 10567 10567 10567 10568 10570 10571 10572 10573 10572 10573 10574 10575 10577 10578 10580 10581 10583 10587 10589 10592 10596 10597 10600 10605 10607 10607 10607 10610 10613 10615 10620 10623 10624 10626 10629 10632 10636 10641 10645 10650 10655 10650 10647 10651 10655 10659 10669 10679 10679 10677 10687 10693 10692 10691 10689 10690 10695
10530 10529 10528 10527 10527 10527 10527 10527 10528 10528 10529 10530 10531 10533 10535 10537 10540 10543 10547 10549 10550 10550 10553 10557 10556 10556 10558 10557 10557 10560 10561 10560 10559 10561 10563 10564 10564 10565 10566 10566 10566 10568 10569 10570 10571 10573 10576 10578 10581 10584 10586 10589 10589 10593 10598 10598 10596 10597 10601 10604 10608 10615 10618 10621 10620 10620 10626 10631 10635 10638 10645 10650 10643 10639 10647 10652 10655 10665 10675 10669 10665 10679 10688 10687 10687 10684 10684 10688
10520 10520 10519 10518 10518 10518 10518 10518 10518 10519 10520 10521 10522 10524 10526 10529 10532 10536 10540 10541 10541 10543 10547 10550 10549 10550 10551 10551 10552 10553 10554 10553 10553 10557 10558 10556 10558 10560 10560 10560 10560 10562 10563 10563 10565 10568 10571 10573 10576 10578 10578 10580 10582 10586 10590 10588 10587 10590 10596 10601 10606 10611 10614 10617 10614 10611 10620 10628 10628 10632 10641 10643 10634 10634 10644 10649 10652 10661 10667 10662 10660 10673 10681 10681 10681 10679 10679 10681
10511 10510 10510 10510 10509 10509 10509 10509 10510 10511 10512 10513 10514 10516 10518 10521 10524 10528 10532 10533 10533 10537 10540 10542 10542 10543 10544 10545 10546 10546 10547 10547 10548 10551 10551 10549 10552 10554 10554 10554 10555 10556 10556 10557 10559 10563 10566 10568 10569 10569 10569 10572 10576 10580 10582 10581 10582 10587 10595 10599 10601 10604 10607 10609 10605 10602 10613 10623 10622 10623 10634 10637 10627 10628 10640 10645 10649 10654 10658 10658 10659 10668 10673 10672 10674 10674 10672 10674
10503 10502 10502 10501 10501 10501 10500 10500 10501 10502 10504 10505 10506 10508 10510 10514 10517 10521 10525 10525 10526 10530 10533 10535 10536 10535 10538 10540 10539 10540 10541 10541 10543 10545 10544 10544 10546 10548 10548 10548 10549 10549 10550 10553 10555 10558 10560 10560 10560 10560 10563 10567 10570 10574 10575 10575 10578 10585 10590 10592 10593 10595 10598 10599 10595 10595 10606 10616 10617 10616 10625 10632 10624 10623 10634 10640 10644 10650 10653 10654 10655 10662 10665 10663 10665 10665 10664 10671
10495 10495 10494 10494 10493 10492 10492 10492 10493 10494 10496 10497 10499 10500 10503 10507 10510 10513 10518 10520 10518 10522 10526 10527 10529 10529 10530 10533 10532 10535 10536 10535 10537 10539 10539 10538 10539 10542 10543 10542 10543 10543 10546 10549 10549 10552 10553 10551 10552 10555 10559 10563 10565 10567 10569 10571 10575 10580 10582 10582 10584 10587 10589 10590 10588 10589 10598 10607 10612 10613 10617 10624 10622 10619 10625 10634 10641 10646 10649 10649 10650 10654 10657 10655 10656 10658 10662 10672
10487 10487 10486 10486 10486 10485 10485 10485 10485 10487 10489 10490 10492 10494 10496 10499 10503 10506 10511 10514 10511 10514 10520 10520 10522 10524 10523 10525 10527 10529 10530 10530 10531 10533 10533 10532 10533 10538 10537 10536 10538 10539 10541 10543 10544 10545 10545 10545 10548 10552 10555 10557 10559 10562 10564 10566 10569 10571 10573 10574 10577 10581 10581 10581 10582 10583 10591 10602 10608 10612 10612 10614 10617 10615 10620 10630 10638 10643 10644 10643 10643 10645 10647 10648 10651 10657 10664 10669
10481 10480 10479 10478 10479 10478 10478 10477 10478 10480 10482 10483 10485 10487 10489 10491 10496 10499 10504 10509 10506 10505 10513 10515 10515 10517 10516 10519 10522 10522 10524 10525 10525 10526 10528 10526 10529 10532 10530 10530 10534 10535 10535 10537 10539 10539 10538 10541 10545 10547 10549 10551 10554 10556 10557 10559 10562 10564 10567 10570 10572 10576 10575 10577 10579 10579 10588 10599 10604 10607 10607 10607 10609 10610 10619 10628 10633 10639 10638 10634 10636 10637 10638 10643 10650 10658 10663 10663
10475 10474 10473 10472 10472 10471 10471 10470 10471 10474 10475 10477 10479 10480 10482 10484 10488 10493 10497 10504 10502 10498 10506 10511 10508 10508 10511 10515 10516 10515 10518 10519 10518 10521 10522 10521 10524 10526 10524 10527 10529 10529 10530 10532 10534 10534 10534 10538 10541 10541 10543 10546 10548 10549 10549 10552 10556 10560 10563 10564 10565 10569 10570 10571 10574 10577 10585 10594 10597 10599 10602 10604 10604 10607 10618 10622 10626 10634 10630 10626 10631 10631 10633 10642 10649 10655 10657 10657
10468 10468 10467 10467 10466 10465 10464 10463 10464 10468 10469 10471 10471 10472 10476 10478 10481 10487 10491 10498 10497 10492 10498 10505 10501 10499 10506 10510 10509 10509 10512 10512 10514 10517 10515 10514 10519 10521 10520 10523 10523 10524 10526 10527 10529 10529 10529 10534 10535 10536 10538 10541 10542 10542 10544 10548 10552 10555 10557 10558 10559 10562 10565 10567 10570 10575 10581 10587 10590 10593 10597 10601 10602 10605 10612 10614 10620 10629 10624 10620 10624 10625 10633 10642 10645 10647 10649 10650
10462 10462 10462 10461 10459 10458 10458 10457 10458 10462 10464 10463 10463 10466 10471 10472 10475 10481 10486 10491 10492 10488 10491 10496 10493 10492 10501 10505 10503 10503 10506 10506 10509 10511 10509 10510 10515 10516 10516 10517 10517 10519 10521 10523 10524 10523 10525 10529 10529 10530 10533 10535 10536 10537 10540 10546 10548 10549 10551 10552 10554 10557 10560 10563 10568 10570 10574 10580 10584 10587 10591 10597 10599 10601 10604 10607 10614 10621 10618 10616 10619 10623 10632 10638 10638 10640 10641 10643
10455 10455 10456 10455 10453 10452 10452 10452 10452 10455 10458 10456 10456 10462 10465 10466 10470 10474 10480 10485 10486 10484 10485 10487 10485 10487 10495 10499 10495 10497 10501 10501 10503 10506 10506 10506 10509 10511 10511 10511 10513 10514 10517 10519 10519 10518 10521 10524 10524 10525 10528 10529 10531 10534 10538 10542 10542 10543 10546 10549 10551 10554 10557 10560 10564 10566 10569 10575 10579 10581 10586 10591 10594 10595 10598 10603 10608 10613 10613 10613 10616 10621 10628 10632 10632 10633 10635 10636
10449 10449 10450 10449 10448 10446 10447 10447 10446 10448 10451 10450 10451 10455 10458 10461 10464 10469 10475 10479 10478 10477 10478 10480 10480 10481 10488 10491 10489 10491 10496 10496 10497 10501 10502 10501 10503 10506 10506 10507 10509 10510 10513 10514 10514 10515 10517 10519 10519 10521 10523 10525 10527 10531 10535 10536 10537 10539 10544 10546 10547 10550 10552 10554 10559 10562 10566 10570 10573 10577 10582 10586 10588 10590 10594 10598 10601 10605 10607 10610 10615 10620 10623 10624 10624 10627 10629 10630
10444 10444 10444 10444 10442 10441 10441 10441 10440 10443 10444 10445 10447 10450 10453 10456 10459 10464 10470 10472 10469 10469 10473 10476 10474 10474 10480 10483 10483 10487 10491 10491 10493 10497 10496 10496 10499 10500 10501 10503 10505 10506 10507 10508 10509 10510 10512 10514 10515 10516 10518 10520 10523 10527 10530 10531 10533 10537 10540 10541 10543 10545 10546 10549 10553 10558 10562 10565 10569 10573 10577 10580 10582 10586 10589 10592 10594 10598 10603 10608 10613 10616 10616 10616 10617 10621 10624 10625
10438 10438 10438 10438 10438 10436 10436 10435 10435 10438 10439 10440 10442 10445 10448 10451 10454 10460 10463 10463 10461 10462 10468 10470 10467 10469 10474 10477 10478 10482 10485 10486 10489 10492 10490 10491 10495 10495 10497 10499 10500 10501 10503 10503 10504 10506 10508 10509 10510 10511 10513 10516 10520 10523 10525 10526 10529 10533 10535 10536 10538 10540 10542 10546 10549 10554 10559 10562 10565 10567 10571 10574 10577 10580 10584 10587 10591 10595 10600 10605 10608 10609 10609 10610 10612 10617 10620 10623
10432 10432 10432 10433 10433 10432 10431 10431 10431 10433 10434 10436 10438 10440 10443 10446 10451 10455 10455 10454 10454 10456 10461 10463 10462 10464 10468 10471 10474 10476 10478 10481 10485 10487 10485 10487 10490 10491 10492 10494 10495 10496 10498 10498 10500 10502 10504 10505 10505 10508 10510 10514 10518 10519 10521 10522 10524 10527 10529 10530 10533 10536 10540 10543 10547 10552 10556 10558 10559 10560 10564 10570 10572 10576 10581 10584 10588 10592 10595 10599 10601 10603 10605 10606 10610 10614 10617 10620
10426 10427 10427 10427 10428 10428 10427 10426 10427 10429 10430 10432 10434 10436 10439 10443 10447 10447 10446 10447 10447 10450 10455 10456 10455 10458 10462 10466 10469 10470 10472 10475 10480 10482 10480 10482 10485 10486 10487 10489 10490 10491 10492 10494 10496 10498 10500 10500 10502 10504 10507 10511 10513 10514 10515 10517 10520 10523 10524 10526 10529 10533 10537 10540 10543 10548 10551 10552 10553 10554 10559 10565 10569 10573 10577 10580 10584 10587 10590 10594 10597 10600 10602 10602 10604 10608 10613 10617
10420 10421 10422 10422 10423 10423 10423 10422 10422 10424 10426 10428 10430 10432 10435 10439 10439 10439 10440 10441 10440 10443 10447 10448 10449 10453 10458 10461 10463 10465 10467 10470 10474 10476 10476 10478 10480 10481 10482 10484 10485 10485 10487 10490 10492 10493 10495 10496 10498 10500 10503 10506 10507 10508 10510 10512 10516 10519 10520 10523 10526 10530 10534 10537 10539 10543 10545 10548 10549 10550 10556 10562 10566 10570 10573 10575 10580 10583 10585 10590 10593 10595 10595 10594 10597 10602 10608 10613
10415 10415 10416 10417 10418 10418 10418 10418 10417 10419 10421 10423 10426 10429 10431 10432 10431 10431 10434 10434 10433 10436 10438 10441 10446 10450 10453 10456 10458 10459 10462 10465 10468 10469 10471 10474 10475 10476 10477 10478 10480 10481 10483 10487 10487 10489 10491 10492 10493 10496 10499 10501 10502 10504 10507 10510 10513 10515 10517 10521 10524 10527 10530 10532 10535 10538 10541 10544 10545 10548 10554 10559 10562 10566 10569 10571 10576 10579 10582 10586 10588 10589 10590 10589 10592 10599 10605 10607
10409 10410 10410 10411 10412 10412 10413 10412 10413 10414 10416 10418 10422 10424 10424 10424 10424 10425 10427 10427 10427 10429 10431 10435 10441 10444 10447 10451 10452 10454 10457 10459 10462 10464 10467 10469 10470 10471 10472 10474 10476 10477 10479 10482 10483 10485 10487 10488 10490 10492 10496 10497 10498 10501 10504 10506 10509 10511 10514 10516 10519 10522 10525 10527 10530 10533 10537 10540 10542 10545 10550 10554 10557 10561 10564 10567 10572 10575 10578 10580 10582 10584 10586 10586 10590 10596 10599 10599
10404 10405 10405 10405 10405 10406 10407 10407 10407 10409 10411 10413 10416 10416 10416 10417 10418 10418 10420 10421 10421 10423 10426 10431 10436 10439 10442 10445 10447 10450 10452 10452 10456 10460 10461 10463 10465 10466 10467 10469 10471 10473 10475 10478 10479 10481 10483 10485 10487 10490 10492 10493 10494 10497 10500 10502 10504 10507 10509 10511 10514 10517 10520 10523 10526 10529 10534 10537 10538 10542 10545 10548 10553 10557 10560 10564 10568 10570 10572 10574 10577 10580 10583 10585 10588 10591 10593 10594
10399 10398 10398 10399 10398 10398 10400 10400 10401 10402 10404 10407 10409 10409 10410 10411 10411 10412 10413 10415 10415 10418 10422 10426 10430 10434 10437 10439 10442 10445 10445 10446 10450 10453 10455 10457 10460 10461 10462 10464 10467 10469 10471 10473 10475 10478 10480 10482 10484 10486 10488 10489 10490 10493 10496 10498 10500 10502 10504 10507 10510 10512 10515 10519 10522 10526 10530 10532 10535 10538 10540 10543 10549 10554 10558 10560 10563 10564 10566 10570 10573 10577 10580 10581 10583 10586 10588 10590
10393 10392 10391 10392 10393 10392 10392 10393 10394 10396 10398 10400 10401 10402 10403 10404 10405 10406 10406 10408 10410 10413 10417 10420 10423 10427 10431 10434 10437 10438 10439 10441 10444 10445 10449 10453 10455 10456 10457 10459 10463 10465 10466 10468 10471 10474 10477 10479 10480 10481 10483 10484 10486 10490 10492 10493 10495 10497 10499 10502 10505 10508 10511 10515 10518 10521 10525 10527 10530 10533 10535 10539 10545 10550 10554 10556 10558 10560 10563 10566 10570 10573 10576 10578 10579 10582 10584 10585
10386 10385 10385 10386 10386 10386 10385 10386 10386 10388 10390 10392 10393 10394 10396 10397 10398 10399 10399 10401 10403 10406 10410 10412 10416 10422 10425 10426 10428 10430 10432 10435 10438 10440 10444 10448 10449 10451 10452 10454 10458 10460 10461 10464 10466 10469 10473 10475 10476 10478 10479 10481 10484 10485 10486 10487 10489 10491 10494 10497 10499 10503 10507 10510 10513 10516 10519 10522 10525 10527 10529 10535 10541 10546 10549 10553 10556 10559 10561 10563 10567 10570 10572 10574 10576 10578 10580 10581
10380 10379 10378 10378 10379 10379 10379 10379 10379 10380 10382 10383 10384 10386 10387 10390 10391 10391 10392 10394 10397 10400 10402 10405 10410 10416 10418 10419 10422 10425 10427 10429 10432 10436 10440 10443 10444 10445 10447 10450 10453 10455 10457 10459 10461 10465 10471 10472 10473 10475 10476 10478 10480 10480 10480 10483 10485 10486 10489 10491 10494 10497 10501 10504 10508 10511 10514 10516 10519 10521 10525 10531 10538 10544 10548 10551 10555 10557 10558 10559 10562 10565 10568 10570 10572 10574 10575 10577
10374 10372 10371 10372 10372 10371 10371 10371 10370 10372 10374 10374 10375 10377 10379 10382 10383 10383 10384 10386 10389 10391 10393 10398 10404 10408 10410 10412 10415 10417 10419 10423 10428 10434 10437 10438 10439 10441 10443 10446 10449 10450 10452 10454 10457 10463 10468 10468 10469 10471 10472 10474 10475 10476 10478 10481 10483 10484 10486 10488 10489 10492 10495 10498 10502 10506 10509 10511 10514 10517 10521 10526 10534 10542 10548 10552 10554 10555 10555 10556 10558 10560 10563 10565 10567 10569 10571 10572
10368 10366 10364 10364 10364 10364 10363 10362 10362 10364 10365 10365 10366 10369 10371 10373 10374 10374 10376 10378 10380 10382 10386 10393 10399 10403 10404 10404 10406 10409 10412 10417 10424 10429 10431 10432 10435 10438 10440 10443 10445 10446 10449 10450 10453 10459 10463 10463 10464 10465 10468 10470 10472 10474 10476 10478 10479 10480 10483 10485 10486 10489 10492 10495 10499 10502 10503 10506 10508 10512 10517 10521 10529 10538 10544 10548 10551 10552 10552 10552 10553 10554 10557 10560 10562 10564 10566 10568
10361 10360 10357 10356 10356 10356 10355 10354 10354 10354 10355 10357 10358 10360 10361 10363 10365 10366 10367 10369 10371 10375 10382 10389 10394 10396 10394 10395 10399 10403 10407 10412 10417 10420 10422 10426 10430 10433 10436 10438 10440 10442 10446 10447 10449 10453 10456 10458 10460 10461 10464 10467 10468 10470 10472 10473 10475 10476 10479 10481 10483 10487 10492 10494 10497 10500 10501 10503 10505 10507 10512 10519 10527 10536 10539 10540 10543 10544 10544 10545 10546 10547 10549 10553 10555 10558 10561 10563
10354 10352 10350 10349 10348 10348 10347 10346 10346 10346 10347 10349 10349 10350 10351 10353 10356 10357 10359 10360 10364 10370 10377 10382 10386 10386 10384 10387 10393 10396 10400 10405 10409 10413 10417 10421 10425 10428 10431 10434 10435 10438 10442 10443 10444 10448 10451 10453 10456 10457 10461 10463 10464 10466 10468 10469 10471 10473 10475 10477 10480 10484 10487 10490 10493 10496 10498 10500 10502 10505 10510 10516 10524 10532 10535 10535 10535 10536 10538 10541 10542 10543 10545 10547 10549 10552 10555 10558
10347 10345 10343 10342 10341 10341 10340 10339 10339 10339 10339 10340 10341 10341 10343 10345 10347 10350 10351 10353 10358 10364 10369 10373 10375 10376 10376 10380 10385 10390 10395 10398 10401 10407 10413 10417 10421 10423 10425 10429 10431 10434 10437 10438 10441 10444 10445 10448 10451 10454 10456 10457 10459 10461 10463 10465 10467 10469 10471 10473 10476 10479 10482 10484 10488 10490 10493 10496 10499 10502 10507 10513 10518 10524 10529 10529 10529 10531 10535 10538 10540 10541 10542 10543 10544 10546 10549 10553
10341 10339 10337 10336 10335 10334 10333 10333 10332 10332 10332 10333 10333 10334 10337 10338 10340 10342 10343 10346 10351 10355 10358 10361 10363 10365 10367 10370 10376 10383 10387 10390 10394 10401 10409 10414 10417 10419 10421 10424 10427 10429 10431 10434 10436 10438 10440 10442 10445 10448 10450 10452 10454 10457 10459 10460 10463 10465 10466 10469 10472 10474 10476 10479 10483 10485 10488 10490 10494 10498 10504 10508 10511 10516 10521 10525 10526 10529 10532 10535 10537 10538 10538 10538 10539 10541 10544 10546
10336 10334 10331 10330 10328 10327 10327 10326 10325 10325 10325 10326 10326 10328 10329 10330 10333 10335 10336 10339 10342 10345 10348 10351 10354 10357 10359 10363 10370 10375 10378 10382 10388 10397 10406 10411 10414 10415 10417 10420 10422 10424 10426 10429 10431 10433 10435 10437 10440 10442 10444 10447 10450 10453 10455 10458 10459 10460 10462 10464 10467 10468 10470 10474 10477 10480 10482 10483 10486 10492 10497 10501 10504 10509 10515 10520 10523 10525 10528 10530 10531 10532 10533 10533 10533 10535 10537 10539
10333 10330 10327 10325 10323 10322 10321 10320 10320 10320 10319 10319 10320 10322 10323 10325 10327 10329 10330 10332 10334 10337 10341 10344 10346 10350 10354 10361 10367 10371 10375 10380 10386 10393 10400 10403 10405 10408 10412 10415 10417 10418 10421 10423 10426 10427 10429 10432 10435 10436 10438 10442 10446 10448 10451 10453 10452 10454 10457 10460 10462 10463 10465 10468 10471 10474 10476 10478 10480 10484 10488 10493 10498 10502 10506 10511 10514 10516 10519 10522 10524 10525 10526 10525 10526 10527 10529 10531
10329 10326 10324 10321 10319 10318 10316 10316 10315 10315 10314 10314 10315 10316 10318 10320 10321 10322 10324 10326 10328 10332 10336 10338 10341 10346 10351 10358 10363 10367 10372 10377 10382 10388 10391 10393 10397 10401 10405 10409 10412 10413 10416 10418 10421 10423 10425 10427 10430 10430 10431 10436 10440 10442 10445 10447 10446 10448 10452 10455 10457 10459 10460 10462 10466 10470 10471 10473 10476 10479 10481 10485 10490 10495 10499 10502 10504 10506 10510 10513 10516 10518 10518 10518 10519 10521 10522 10523
10326 10323 10321 10318 10316 10314 10313 10312 10311 10311 10310 10310 10310 10311 10313 10314 10315 10316 10318 10321 10324 10327 10331 10333 10336 10342 10346 10350 10354 10358 10363 10367 10372 10377 10381 10384 10389 10393 10397 10401 10405 10407 10408 10410 10414 10417 10417 10418 10421 10422 10425 10430 10434 10436 10440 10442 10441 10442 10446 10450 10452 10454 10455 10457 10461 10465 10467 10469 10473 10475 10477 10479 10483 10488 10492 10495 10497 10499 10502 10505 10508 10510 10512 10513 10514 10516 10517 10518
10324 10321 10318 10316 10314 10312 10310 10309 10308 10307 10307 10306 10306 10307 10309 10310 10311 10312 10314 10317 10319 10323 10326 10328 10331 10336 10339 10341 10344 10348 10353 10357 10362 10367 10372 10377 10382 10386 10391 10396 10398 10399 10398 10400 10406 10408 10406 10408 10412 10415 10420 10424 10427 10430 10434 10436 10435 10437 10440 10444 10446 10448 10450 10452 10455 10459 10463 10467 10471 10471 10472 10475 10477 10481 10485 10489 10491 10494 10497 10500 10502 10504 10507 10509 10511 10512 10513 10513